Time,TemperatureF,DewpointF,PressureIn,WindDirection,WindDirectionDegrees,WindSpeedMPH,WindSpeedGustMPH,Humidity,HourlyPrecipIn,Conditions,Clouds,dailyrainin,SoftwareType,DateUTC
2013-04-20 00:02:00,29.0,22.0,-100.00,NW,325,5.0,9.0,77,0.00,,,-99.99,,2013-04-20 05:02:00,
2013-04-20 00:12:00,29.0,23.0,-100.00,NW,325,4.0,7.0,77,0.00,,,-99.99,,2013-04-20 05:12:00,
2013-04-20 00:22:00,29.0,23.0,-100.00,NNW,345,4.0,7.0,78,0.00,,,-99.99,,2013-04-20 05:22:00,
2013-04-20 00:32:00,29.0,23.0,-100.00,NNW,330,4.0,4.0,79,0.00,,,-99.99,,2013-04-20 05:32:00,
2013-04-20 00:42:00,29.0,23.0,-100.00,NNW,330,4.0,4.0,79,0.00,,,-99.99,,2013-04-20 05:42:00,
2013-04-20 00:51:00,28.0,23.0,-100.00,NNW,330,4.0,7.0,80,0.00,,,-99.99,,2013-04-20 05:51:00,
2013-04-20 01:02:00,28.0,23.0,-100.00,NNW,330,4.0,7.0,80,0.00,,,-99.99,,2013-04-20 06:02:00,
2013-04-20 01:12:00,28.0,23.0,-100.00,North,350,6.0,8.0,80,0.00,,,-99.99,,2013-04-20 06:12:00,
2013-04-20 01:21:00,28.0,23.0,-100.00,North,350,6.0,7.0,80,0.00,,,-99.99,,2013-04-20 06:21:00,
2013-04-20 01:32:00,29.0,23.0,-100.00,North,350,10.0,13.0,79,0.00,,,-99.99,,2013-04-20 06:32:00,
2013-04-20 01:42:00,29.0,23.0,-100.00,North,350,10.0,13.0,79,0.00,,,-99.99,,2013-04-20 06:42:00,
2013-04-20 01:52:00,28.0,23.0,-100.00,North,350,9.0,13.0,79,0.00,,,-99.99,,2013-04-20 06:52:00,
2013-04-20 02:01:00,28.0,23.0,-100.00,North,350,9.0,13.0,79,0.00,,,-99.99,,2013-04-20 07:01:00,
2013-04-20 02:11:00,28.0,23.0,-100.00,NNW,345,7.0,11.0,80,0.00,,,-99.99,,2013-04-20 07:11:00,
2013-04-20 02:21:00,27.0,22.0,-100.00,NNW,345,7.0,11.0,81,0.00,,,-99.99,,2013-04-20 07:21:00,
2013-04-20 02:32:00,27.0,22.0,-100.00,NNW,335,7.0,10.0,83,0.00,,,-99.99,,2013-04-20 07:32:00,
2013-04-20 02:42:00,27.0,22.0,-100.00,NNW,335,7.0,10.0,83,0.00,,,-99.99,,2013-04-20 07:42:00,
2013-04-20 02:52:00,26.0,22.0,-100.00,NNW,345,7.0,10.0,83,0.00,,,-99.99,,2013-04-20 07:52:00,
2013-04-20 03:01:00,26.0,22.0,-100.00,NNW,345,7.0,10.0,83,0.00,,,-99.99,,2013-04-20 08:01:00,
2013-04-20 03:11:00,27.0,22.0,-100.00,NNW,345,8.0,11.0,83,0.00,,,-99.99,,2013-04-20 08:11:00,
2013-04-20 03:21:00,26.0,22.0,-100.00,NNW,345,7.0,11.0,84,0.00,,,-99.99,,2013-04-20 08:21:00,
2013-04-20 03:32:00,26.0,22.0,-100.00,NNW,330,6.0,12.0,86,0.00,,,-99.99,,2013-04-20 08:32:00,
2013-04-20 03:42:00,26.0,22.0,-100.00,NNW,330,6.0,12.0,86,0.00,,,-99.99,,2013-04-20 08:42:00,
2013-04-20 03:52:00,26.0,23.0,-100.00,North,350,9.0,13.0,86,0.00,,,-99.99,,2013-04-20 08:52:00,
2013-04-20 04:01:00,26.0,23.0,-100.00,North,350,9.0,13.0,86,0.00,,,-99.99,,2013-04-20 09:01:00,
2013-04-20 04:12:00,26.0,22.0,-100.00,North,350,9.0,11.0,86,0.00,,,-99.99,,2013-04-20 09:12:00,
2013-04-20 04:21:00,25.0,22.0,-100.00,North,355,6.0,9.0,86,0.00,,,-99.99,,2013-04-20 09:21:00,
2013-04-20 04:33:00,25.0,21.0,-100.00,NNW,335,6.0,7.0,87,0.00,,,-99.99,,2013-04-20 09:33:00,
2013-04-20 04:43:00,25.0,21.0,-100.00,NNW,335,6.0,7.0,87,0.00,,,-99.99,,2013-04-20 09:43:00,
2013-04-20 04:52:00,24.0,21.0,-100.00,North,350,6.0,9.0,87,0.00,,,-99.99,,2013-04-20 09:52:00,
2013-04-20 05:02:00,24.0,21.0,-100.00,North,350,6.0,9.0,87,0.00,,,-99.99,,2013-04-20 10:02:00,
2013-04-20 05:12:00,24.0,21.0,-100.00,NNW,330,4.0,6.0,87,0.00,,,-99.99,,2013-04-20 10:12:00,
2013-04-20 05:23:00,24.0,21.0,-100.00,NW,320,4.0,6.0,88,0.00,,,-99.99,,2013-04-20 10:23:00,
2013-04-20 05:33:00,24.0,21.0,-100.00,NW,310,4.0,6.0,88,0.00,,,-99.99,,2013-04-20 10:33:00,
2013-04-20 05:42:00,24.0,21.0,-100.00,NW,310,4.0,6.0,88,0.00,,,-99.99,,2013-04-20 10:42:00,
2013-04-20 05:52:00,24.0,21.0,-100.00,NW,305,4.0,7.0,88,0.00,,,-99.99,,2013-04-20 10:52:00,
2013-04-20 06:02:00,24.0,21.0,-100.00,NW,305,4.0,7.0,88,0.00,,,-99.99,,2013-04-20 11:02:00,
2013-04-20 06:12:00,24.0,21.0,-100.00,NW,320,5.0,6.0,88,0.00,,,-99.99,,2013-04-20 11:12:00,
2013-04-20 06:23:00,24.0,21.0,-100.00,NW,315,6.0,6.0,88,0.00,,,-99.99,,2013-04-20 11:23:00,
2013-04-20 06:32:00,24.0,21.0,-100.00,NW,305,3.0,5.0,88,0.00,,,-99.99,,2013-04-20 11:32:00,
2013-04-20 06:42:00,24.0,21.0,-100.00,NW,305,3.0,5.0,88,0.00,,,-99.99,,2013-04-20 11:42:00,
2013-04-20 06:52:00,24.0,21.0,-100.00,WNW,300,1.0,2.0,88,0.00,,,-99.99,,2013-04-20 11:52:00,
2013-04-20 07:02:00,24.0,21.0,-100.00,WNW,300,1.0,2.0,88,0.00,,,-99.99,,2013-04-20 12:02:00,
2013-04-20 07:11:00,24.0,21.0,-100.00,NNW,340,2.0,3.0,88,0.00,,,-99.99,,2013-04-20 12:11:00,
2013-04-20 07:22:00,25.0,22.0,-100.00,NNE,15,2.0,4.0,88,0.00,,,-99.99,,2013-04-20 12:22:00,
2013-04-20 07:32:00,26.0,23.0,-100.00,NNW,335,1.0,2.0,87,0.00,,,-99.99,,2013-04-20 12:32:00,
2013-04-20 07:42:00,26.0,23.0,-100.00,NNW,335,1.0,2.0,87,0.00,,,-99.99,,2013-04-20 12:42:00,
2013-04-20 07:51:00,28.0,24.0,-100.00,North,5,1.0,2.0,85,0.00,,,-99.99,,2013-04-20 12:51:00,
2013-04-20 08:02:00,28.0,24.0,-100.00,North,5,1.0,2.0,85,0.00,,,-99.99,,2013-04-20 13:02:00,
2013-04-20 08:11:00,29.0,25.0,-100.00,NNW,335,1.0,4.0,84,0.00,,,-99.99,,2013-04-20 13:11:00,
2013-04-20 08:21:00,29.0,24.0,-100.00,North,5,4.0,4.0,82,0.00,,,-99.99,,2013-04-20 13:21:00,
2013-04-20 08:32:00,30.0,25.0,-100.00,NNE,15,6.0,9.0,79,0.00,,,-99.99,,2013-04-20 13:32:00,
2013-04-20 08:42:00,30.0,25.0,-100.00,NNE,15,6.0,9.0,79,0.00,,,-99.99,,2013-04-20 13:42:00,
2013-04-20 08:52:00,31.0,25.0,-100.00,NNE,30,7.0,9.0,75,0.00,,,-99.99,,2013-04-20 13:52:00,
2013-04-20 09:02:00,31.0,25.0,-100.00,NNE,30,7.0,9.0,75,0.00,,,-99.99,,2013-04-20 14:02:00,
2013-04-20 09:11:00,32.0,24.0,-100.00,NE,45,3.0,7.0,73,0.00,,,-99.99,,2013-04-20 14:11:00,
2013-04-20 09:21:00,33.0,24.0,-100.00,NNE,15,5.0,8.0,70,0.00,,,-99.99,,2013-04-20 14:21:00,
2013-04-20 09:32:00,33.0,24.0,-100.00,NE,55,2.0,6.0,66,0.00,,,-99.99,,2013-04-20 14:32:00,
2013-04-20 09:42:00,33.0,24.0,-100.00,NE,55,2.0,6.0,66,0.00,,,-99.99,,2013-04-20 14:42:00,
2013-04-20 09:51:00,35.0,23.0,-100.00,East,90,1.0,4.0,61,0.00,,,-99.99,,2013-04-20 14:51:00,
2013-04-20 10:01:00,35.0,23.0,-100.00,East,90,1.0,4.0,61,0.00,,,-99.99,,2013-04-20 15:01:00,
2013-04-20 10:11:00,35.0,21.0,-100.00,ENE,65,4.0,6.0,57,0.00,,,-99.99,,2013-04-20 15:11:00,
2013-04-20 10:21:00,36.0,22.0,-100.00,NE,45,2.0,6.0,56,0.00,,,-99.99,,2013-04-20 15:21:00,
2013-04-20 10:33:00,36.0,21.0,-100.00,North,0,2.0,7.0,53,0.00,,,-99.99,,2013-04-20 15:33:00,
2013-04-20 10:43:00,36.0,21.0,-100.00,North,0,2.0,7.0,53,0.00,,,-99.99,,2013-04-20 15:43:00,
2013-04-20 10:53:00,38.0,22.0,-100.00,East,95,4.0,9.0,52,0.00,,,-99.99,,2013-04-20 15:53:00,
2013-04-20 11:03:00,38.0,22.0,-100.00,East,95,4.0,9.0,52,0.00,,,-99.99,,2013-04-20 16:03:00,
2013-04-20 11:12:00,39.0,22.0,-100.00,SE,125,2.0,7.0,50,0.00,,,-99.99,,2013-04-20 16:12:00,
2013-04-20 11:23:00,38.0,21.0,-100.00,South,180,2.0,7.0,48,0.00,,,-99.99,,2013-04-20 16:23:00,
2013-04-20 11:32:00,41.0,21.0,-100.00,ENE,60,2.0,6.0,44,0.00,,,-99.99,,2013-04-20 16:32:00,
2013-04-20 11:42:00,41.0,21.0,-100.00,ENE,60,2.0,6.0,44,0.00,,,-99.99,,2013-04-20 16:42:00,
2013-04-20 11:52:00,40.0,18.0,-100.00,ENE,70,2.0,10.0,41,0.00,,,-99.99,,2013-04-20 16:52:00,
2013-04-20 12:02:00,40.0,18.0,-100.00,ENE,70,2.0,10.0,41,0.00,,,-99.99,,2013-04-20 17:02:00,
2013-04-20 12:12:00,40.0,17.0,-100.00,East,80,4.0,7.0,40,0.00,,,-99.99,,2013-04-20 17:12:00,
2013-04-20 12:23:00,41.0,19.0,-100.00,SSE,165,2.0,7.0,40,0.00,,,-99.99,,2013-04-20 17:23:00,
2013-04-20 12:33:00,41.0,18.0,-100.00,ESE,105,3.0,10.0,39,0.00,,,-99.99,,2013-04-20 17:33:00,
2013-04-20 12:42:00,41.0,18.0,-100.00,ESE,105,3.0,10.0,39,0.00,,,-99.99,,2013-04-20 17:42:00,
2013-04-20 12:52:00,42.0,19.0,-100.00,SSE,150,7.0,8.0,39,0.00,,,-99.99,,2013-04-20 17:52:00,
2013-04-20 13:02:00,42.0,19.0,-100.00,SSE,150,7.0,8.0,39,0.00,,,-99.99,,2013-04-20 18:02:00,
2013-04-20 13:12:00,42.0,19.0,-100.00,SE,145,1.0,7.0,39,0.00,,,-99.99,,2013-04-20 18:12:00,
2013-04-20 13:22:00,41.0,18.0,-100.00,NE,50,4.0,11.0,39,0.00,,,-99.99,,2013-04-20 18:22:00,
2013-04-20 13:32:00,42.0,19.0,-100.00,ENE,60,2.0,9.0,39,0.00,,,-99.99,,2013-04-20 18:32:00,
2013-04-20 13:41:00,42.0,19.0,-100.00,ENE,60,2.0,9.0,39,0.00,,,-99.99,,2013-04-20 18:41:00,
2013-04-20 13:52:00,43.0,20.0,-100.00,South,170,2.0,8.0,39,0.00,,,-99.99,,2013-04-20 18:52:00,
2013-04-20 14:02:00,43.0,20.0,-100.00,South,170,2.0,8.0,39,0.00,,,-99.99,,2013-04-20 19:02:00,
2013-04-20 14:11:00,43.0,20.0,-100.00,SE,140,6.0,9.0,39,0.00,,,-99.99,,2013-04-20 19:11:00,
2013-04-20 14:21:00,42.0,19.0,-100.00,SSE,150,6.0,9.0,39,0.00,,,-99.99,,2013-04-20 19:21:00,
2013-04-20 14:32:00,44.0,22.0,-100.00,SE,145,9.0,12.0,40,0.00,,,-99.99,,2013-04-20 19:32:00,
2013-04-20 14:42:00,44.0,22.0,-100.00,SE,145,9.0,12.0,40,0.00,,,-99.99,,2013-04-20 19:42:00,
2013-04-20 14:52:00,45.0,22.0,-100.00,SE,145,3.0,13.0,39,0.00,,,-99.99,,2013-04-20 19:52:00,
2013-04-20 15:02:00,45.0,22.0,-100.00,SE,145,3.0,13.0,39,0.00,,,-99.99,,2013-04-20 20:02:00,
2013-04-20 15:12:00,45.0,21.0,-100.00,SE,130,8.0,13.0,38,0.00,,,-99.99,,2013-04-20 20:12:00,
2013-04-20 15:21:00,45.0,20.0,-100.00,ESE,110,9.0,13.0,37,0.00,,,-99.99,,2013-04-20 20:21:00,
2013-04-20 15:32:00,45.0,20.0,-100.00,ESE,115,2.0,12.0,36,0.00,,,-99.99,,2013-04-20 20:32:00,
2013-04-20 15:42:00,45.0,20.0,-100.00,ESE,115,2.0,12.0,36,0.00,,,-99.99,,2013-04-20 20:42:00,
2013-04-20 15:52:00,46.0,21.0,-100.00,ESE,115,10.0,16.0,36,0.00,,,-99.99,,2013-04-20 20:52:00,
2013-04-20 16:01:00,46.0,21.0,-100.00,ESE,115,10.0,16.0,36,0.00,,,-99.99,,2013-04-20 21:01:00,
2013-04-20 16:12:00,45.0,20.0,-100.00,SE,125,8.0,14.0,36,0.00,,,-99.99,,2013-04-20 21:12:00,
2013-04-20 16:21:00,46.0,21.0,-100.00,SSE,150,9.0,13.0,37,0.00,,,-99.99,,2013-04-20 21:21:00,
2013-04-20 16:33:00,46.0,21.0,-100.00,East,100,9.0,16.0,36,0.00,,,-99.99,,2013-04-20 21:33:00,
2013-04-20 16:43:00,46.0,21.0,-100.00,East,100,9.0,16.0,36,0.00,,,-99.99,,2013-04-20 21:43:00,
2013-04-20 16:52:00,45.0,20.0,-100.00,East,100,11.0,16.0,35,0.00,,,-99.99,,2013-04-20 21:52:00,
2013-04-20 17:02:00,45.0,20.0,-100.00,East,100,11.0,16.0,35,0.00,,,-99.99,,2013-04-20 22:02:00,
2013-04-20 17:12:00,46.0,20.0,-100.00,ESE,110,14.0,18.0,35,0.00,,,-99.99,,2013-04-20 22:12:00,
2013-04-20 17:22:00,47.0,21.0,-100.00,ESE,120,12.0,19.0,35,0.00,,,-99.99,,2013-04-20 22:22:00,
2013-04-20 17:32:00,46.0,21.0,-100.00,ESE,115,12.0,15.0,36,0.00,,,-99.99,,2013-04-20 22:32:00,
2013-04-20 17:42:00,46.0,21.0,-100.00,ESE,115,12.0,15.0,36,0.00,,,-99.99,,2013-04-20 22:42:00,
2013-04-20 17:52:00,46.0,20.0,-100.00,SE,130,12.0,16.0,35,0.00,,,-99.99,,2013-04-20 22:52:00,
2013-04-20 18:02:00,46.0,20.0,-100.00,SE,130,12.0,16.0,35,0.00,,,-99.99,,2013-04-20 23:02:00,
2013-04-20 18:11:00,46.0,21.0,-100.00,ESE,110,14.0,17.0,36,0.00,,,-99.99,,2013-04-20 23:11:00,
2013-04-20 18:22:00,46.0,21.0,-100.00,SE,140,14.0,17.0,36,0.00,,,-99.99,,2013-04-20 23:22:00,
2013-04-20 18:32:00,45.0,20.0,-100.00,SE,135,14.0,17.0,36,0.00,,,-99.99,,2013-04-20 23:32:00,
2013-04-20 18:42:00,45.0,20.0,-100.00,SE,135,14.0,17.0,36,0.00,,,-99.99,,2013-04-20 23:42:00,
2013-04-20 18:52:00,45.0,21.0,-100.00,ESE,120,13.0,17.0,38,0.00,,,-99.99,,2013-04-20 23:52:00,
2013-04-20 19:01:00,45.0,21.0,-100.00,ESE,120,13.0,17.0,38,0.00,,,-99.99,,2013-04-21 00:01:00,
2013-04-20 19:11:00,45.0,22.0,-100.00,SE,130,13.0,16.0,39,0.00,,,-99.99,,2013-04-21 00:11:00,
2013-04-20 19:21:00,45.0,22.0,-100.00,SE,125,12.0,17.0,40,0.00,,,-99.99,,2013-04-21 00:21:00,
2013-04-20 19:32:00,44.0,22.0,-100.00,SE,125,10.0,14.0,41,0.00,,,-99.99,,2013-04-21 00:32:00,
2013-04-20 19:42:00,44.0,22.0,-100.00,SE,125,10.0,14.0,41,0.00,,,-99.99,,2013-04-21 00:42:00,
2013-04-20 19:52:00,44.0,24.0,-100.00,ESE,120,9.0,11.0,44,0.00,,,-99.99,,2013-04-21 00:52:00,
2013-04-20 20:01:00,44.0,24.0,-100.00,ESE,120,9.0,11.0,44,0.00,,,-99.99,,2013-04-21 01:01:00,
2013-04-20 20:11:00,44.0,24.0,-100.00,ESE,120,10.0,12.0,45,0.00,,,-99.99,,2013-04-21 01:11:00,
2013-04-20 20:21:00,43.0,24.0,-100.00,ESE,120,9.0,12.0,45,0.00,,,-99.99,,2013-04-21 01:21:00,
2013-04-20 20:31:00,42.0,24.0,-100.00,SE,125,10.0,12.0,47,0.00,,,-99.99,,2013-04-21 01:31:00,
2013-04-20 20:42:00,42.0,24.0,-100.00,SE,125,10.0,12.0,47,0.00,,,-99.99,,2013-04-21 01:42:00,
2013-04-20 20:52:00,43.0,25.0,-100.00,SE,130,11.0,14.0,49,0.00,,,-99.99,,2013-04-21 01:52:00,
2013-04-20 21:01:00,43.0,25.0,-100.00,SE,130,11.0,14.0,49,0.00,,,-99.99,,2013-04-21 02:01:00,
2013-04-20 21:11:00,43.0,25.0,-100.00,SE,130,13.0,16.0,49,0.00,,,-99.99,,2013-04-21 02:11:00,
2013-04-20 21:21:00,43.0,26.0,-100.00,SE,125,13.0,17.0,50,0.00,,,-99.99,,2013-04-21 02:21:00,
2013-04-20 21:32:00,42.0,26.0,-100.00,SE,130,11.0,16.0,52,0.00,,,-99.99,,2013-04-21 02:32:00,
2013-04-20 21:41:00,42.0,26.0,-100.00,SE,130,11.0,16.0,52,0.00,,,-99.99,,2013-04-21 02:41:00,
2013-04-20 21:51:00,42.0,26.0,-100.00,SE,130,12.0,15.0,54,0.00,,,-99.99,,2013-04-21 02:51:00,
2013-04-20 22:01:00,42.0,26.0,-100.00,SE,130,12.0,15.0,54,0.00,,,-99.99,,2013-04-21 03:01:00,
2013-04-20 22:11:00,41.0,27.0,-100.00,SE,125,13.0,15.0,55,0.00,,,-99.99,,2013-04-21 03:11:00,
2013-04-20 22:21:00,41.0,27.0,-100.00,SE,130,14.0,17.0,56,0.00,,,-99.99,,2013-04-21 03:21:00,
2013-04-20 22:33:00,41.0,27.0,-100.00,SE,135,16.0,19.0,56,0.00,,,-99.99,,2013-04-21 03:33:00,
2013-04-20 22:42:00,41.0,27.0,-100.00,SE,135,16.0,19.0,56,0.00,,,-99.99,,2013-04-21 03:42:00,
2013-04-20 22:52:00,42.0,27.0,-100.00,SE,140,16.0,19.0,54,0.00,,,-99.99,,2013-04-21 03:52:00,
2013-04-20 23:02:00,42.0,27.0,-100.00,SE,140,16.0,19.0,54,0.00,,,-99.99,,2013-04-21 04:02:00,
2013-04-20 23:12:00,42.0,26.0,-100.00,SE,135,18.0,21.0,54,0.00,,,-99.99,,2013-04-21 04:12:00,
2013-04-20 23:22:00,42.0,26.0,-100.00,SE,135,18.0,22.0,54,0.00,,,-99.99,,2013-04-21 04:22:00,
2013-04-20 23:33:00,42.0,26.0,-100.00,SE,130,17.0,22.0,53,0.00,,,-99.99,,2013-04-21 04:33:00,
2013-04-20 23:42:00,42.0,26.0,-100.00,SE,130,17.0,22.0,53,0.00,,,-99.99,,2013-04-21 04:42:00,
2013-04-20 23:52:00,41.0,26.0,-100.00,SE,130,18.0,22.0,54,0.00,,,-99.99,,2013-04-21 04:52:00,